Location: Ellerstadt
(49.4644°N, 8.2615°E)
Time: 11:54:12
(UTC+00:00)

Okean 1-7 - Pass Details

Date: 03 March 2021
Orbit: 589 x 619 km, 82.5° (Epoch: 13 April)

Event Time Altitude Azimuth Distance (km) Brightness Sun altitude
Rises 17:56:45 0° 358° (N) 2,901 6.5 -7.9°
Reaches altitude 10° 17:59:16 10° 10° (N) 1,986 5.6 -8.3°
Maximum altitude 18:03:04 28° 70° (ENE) 1,162 3.9 -8.9°
Drops below altitude 10° 18:06:48 10° 130° (SE) 1,958 5.2 -9.5°
Enters shadow 18:08:54 - 141° (SE) 2,716 6.0 -9.8°
